Home > Time Zones > World Clock > Weather > Cuba > Havana > Past weeks

Flag for Cuba Weather past 2 weeks in Havana, Cuba

Now
73 °F

Clear.


Feels Like: 72 °F
Forecast: 79 / 91 °F
Wind: 3 mph from East

Location: Aeropuerto Jose Marti - Rancho-Boyeros - Habana

Current Time: Jul 24, 2014 at 6:59:01 AM

Latest Report: Jul 24, 2014 at 5:55 AM


Visibility: 6 mi

Pressure: 30.01 "Hg

Humidity: 89%

Dew point: 70 °F

Location of HavanaLocation

Historic Weather in Havana — Graph

°F

Havana temperature yesterday

Maximum temperature yesterday: 91 °F (at 1:55 PM)
Minimum temperature yesterday: 72 °F (at 4:55 PM)
Average temperature yesterday: 79 °F

Past Weeks' High & Low Weather Summary

 TemperatureHumidityPressure
High93 °F (Jul 12, 2:55 PM)94% (Jul 10, 4:55 AM)30.15 "Hg (Jul 10, 4:55 AM)
Low70 °F (Jul 13, 1:55 AM)38% (Jul 12, 1:55 PM)29.98 "Hg (Jul 15, 6:55 PM)
Average80 °F73%30.06 "Hg
* Reported Jul 9 8:55 AM — Jul 24 5:55 AM, Havana, Weather by CustomWeather, © 2014

Note: Actual official high and low records may vary slightly from our data, if they occured in-between our weather recording intervals... More about our weather records

Advertising

Havana weather history for previous 24 hours

 ConditionsComfort  
Time TempWeatherWind HumidityBarometerVisibility
5:55 AM
Jul 24
73 °FClear.3 mph89%30.01 "Hg6 mi
4:55 AM72 °FClear.5 mph94%30.01 "Hg6 mi
3:55 AM72 °FClear.2 mph94%30.01 "Hg6 mi
2:55 AM73 °FClear.3 mph89%30.01 "Hg6 mi
1:55 AM72 °FClear.2 mph94%30.04 "Hg6 mi
12:55 AM73 °FPassing clouds.No wind89%30.07 "Hg6 mi
11:55 PM
Jul 23
73 °FPassing clouds.No wind89%30.07 "Hg6 mi
10:55 PM73 °FPassing clouds.3 mph89%30.07 "Hg6 mi
9:55 PM73 °FPassing clouds.2 mph89%30.07 "Hg6 mi
8:55 PM73 °FScattered clouds.2 mph83%30.07 "Hg6 mi
7:55 PM73 °FBroken clouds.No wind83%30.04 "Hg6 mi
6:55 PM72 °FPartly sunny.6 mph83%30.01 "Hg6 mi
5:55 PM73 °FLight rain. Partly sunny.6 mph83%30.04 "Hg5 mi
4:55 PM72 °FThunderstorms. Partly sunny.12 mph88%30.04 "Hg3 mi
3:55 PM77 °FThunderstorms. Partly sunny.18 mph74%30.04 "Hg5 mi
2:55 PM91 °FScattered clouds.3 mph49%30.04 "Hg6 mi
1:55 PM91 °FScattered clouds.3 mph52%30.07 "Hg6 mi
12:55 PM90 °FPartly sunny.5 mph52%30.07 "Hg6 mi
11:55 AM88 °FScattered clouds.7 mph59%30.09 "Hg6 mi
10:55 AM88 °FPassing clouds.6 mph62%30.09 "Hg6 mi
9:55 AM86 °FPassing clouds.6 mph66%30.09 "Hg6 mi
8:55 AM82 °FPassing clouds.2 mph79%30.09 "Hg6 mi
Weather by CustomWeather, © 2014

See weather overviewHow to use our weather pages